Weather History for VOTR - October, 2012

Change the Weather History Date:

Wednesday, October 24, 2012

  Actual Average Record
Temperature  
Mean Temperature 76 °F -  
Max Temperature 80 °F 84 °F 96 °F (2010)
Min Temperature 73 °F 74 °F 73 °F (2007)
Cooling Degree Days 12    
Growing Degree Days 26 (Base 50)    
Moisture  
Dew Point 74 °F    
Average Humidity 92    
Maximum Humidity 100    
Minimum Humidity 85    
Precipitation  
Precipitation 0.01 in - - ()
Sea Level Pressure  
Sea Level Pressure 29.86 in    
Wind  
Wind Speed 4 mph ()    
Max Wind Speed 9 mph    
Max Gust Speed -    
Visibility 2.5 miles    
Events Rain    
Averages and records for this station are not official NWS values.
T = Trace of Precipitation, MM = Missing Value Source: Averaged Metar Reports

Daily Weather History Graph

Daily Weather History Graph

Search for Another Location

Airport or City:

Trip Planner

Search our weather history database for the weather conditions in past years. The results will help you decide how hot, cold, wet, or windy it might be!

Date:

Astronomy

Oct. 24, 2012 Rise Set
Actual Time 6:04 AM IST 5:53 PM IST
Civil Twilight 5:43 AM IST 6:14 PM IST
Nautical Twilight 5:18 AM IST 6:39 PM IST
Astronomical Twilight 4:53 AM IST 7:04 PM IST
Moon 2:04 PM IST (10/24) 1:27 AM IST (10/24)
Length of Visible Light 12h 31m
Length of Day
11h 48m
Waxing Gibbous, 72% of the Moon is Illuminated
Oct 24
Waxing Gibbous
Oct 30
Full
Nov 7
Last Quarter
Nov 14
New
Nov 20
First Quarter

Hourly Weather History & Observations

Time (IST) Temp. Dew Point Humidity Pressure Visibility Wind Dir Wind Speed Gust Speed Precip Events Conditions
12:10 AM 77.0 °F 75.2 °F 94% 29.89 in 1.9 mi East 3.5 mph - N/A Rain Light Rain
12:40 AM 77.0 °F 75.2 °F 94% 29.89 in 1.9 mi East 3.5 mph - N/A Rain Light Rain
1:10 AM 77.0 °F 75.2 °F 94% 29.89 in 1.9 mi ESE 3.5 mph - N/A Rain Rain
1:40 AM 77.0 °F 75.2 °F 94% 29.86 in 1.9 mi ESE 3.5 mph - N/A Rain Rain
2:10 AM 77.0 °F 75.2 °F 94% 29.86 in 1.9 mi ESE 3.5 mph - N/A   Drizzle
2:30 AM 76 °F 74 °F 91% 29.86 in 1 mi ESE 4.6 mph - - Rain Drizzle
2:40 AM 75.2 °F 73.4 °F 94% 29.86 in 2.5 mi ESE 3.5 mph - N/A   Light Drizzle
4:10 AM 75.2 °F 73.4 °F 94% 29.86 in 1.9 mi NE 4.6 mph - N/A Rain Rain
5:10 AM 75.2 °F 73.4 °F 94% 29.86 in 1.9 mi NE 8.1 mph - N/A Rain Light Rain
5:30 AM 74 °F 73 °F 96% 29.87 in 1 mi NE 6.9 mph - - Rain Drizzle
6:10 AM 73.4 °F 73.4 °F 100% 29.89 in 1.9 mi NE 6.9 mph - N/A   Drizzle
7:10 AM 73.4 °F 73.4 °F 100% 29.89 in 1.9 mi ENE 5.8 mph - N/A   Drizzle
7:40 AM 75.2 °F 73.4 °F 94% 29.92 in 2.5 mi NE 6.9 mph - N/A   Drizzle
8:10 AM 75.2 °F 73.4 °F 94% 29.92 in 2.5 mi ENE 6.9 mph - N/A   Drizzle
8:30 AM 75 °F 74 °F 97% 29.93 in 2 mi ENE 9.2 mph - - Rain Light Drizzle
8:40 AM 75.2 °F 73.4 °F 94% 29.92 in 2.5 mi ENE 9.2 mph - N/A   Drizzle
9:10 AM 75.2 °F 73.4 °F 94% 29.92 in 2.5 mi NE 6.9 mph - N/A   Light Drizzle
9:40 AM 75.2 °F 75.2 °F 100% 29.92 in 2.5 mi NE 6.9 mph - N/A   Light Drizzle
10:10 AM 77.0 °F 75.2 °F 94% 29.92 in 2.5 mi ENE 9.2 mph - N/A   Light Drizzle
10:40 AM 77.0 °F 75.2 °F 94% 29.92 in 2.5 mi ENE 4.6 mph - N/A   Light Drizzle
11:10 AM 77.0 °F 73.4 °F 89% 29.92 in 2.5 mi NE 4.6 mph - N/A   Light Drizzle
11:30 AM 77 °F 74 °F 90% 29.89 in 2 mi ENE 6.9 mph - - Rain Light Drizzle
11:40 AM 77.0 °F 75.2 °F 94% 29.89 in 2.5 mi ENE 6.9 mph - N/A   Light Drizzle
12:10 PM 77.0 °F 75.2 °F 94% 29.89 in 2.5 mi ENE 4.6 mph - N/A   Light Drizzle
12:40 PM 77.0 °F 75.2 °F 94% 29.83 in 2.5 mi NNE 4.6 mph - N/A   Light Drizzle
1:40 PM 78.8 °F 75.2 °F 89% 29.80 in 3.1 mi North 3.5 mph - N/A   Haze
2:10 PM 78.8 °F 75.2 °F 89% 29.80 in 3.1 mi Calm Calm - N/A   Light Drizzle
2:30 PM 79 °F 75 °F 85% 29.79 in 2 mi Calm Calm - - Rain Light Drizzle
2:40 PM 78.8 °F 75.2 °F 89% 29.77 in 3.1 mi Calm Calm - N/A   Light Drizzle
3:10 PM 78.8 °F 75.2 °F 89% 29.77 in 3.1 mi Calm Calm - N/A   Haze
3:40 PM 78.8 °F 75.2 °F 89% 29.77 in 3.1 mi NE 3.5 mph - N/A   Haze
4:10 PM 78.8 °F 75.2 °F 89% 29.80 in 3.1 mi NNE 3.5 mph - N/A   Haze
4:40 PM 78.8 °F 75.2 °F 89% 29.80 in 3.1 mi NE 4.6 mph - N/A   Haze
5:10 PM 78.8 °F 75.2 °F 89% 29.80 in 3.1 mi NE 3.5 mph - N/A   Haze
5:30 PM 79 °F 75 °F 85% 29.81 in 2 mi NNE 5.8 mph - -   Haze
5:40 PM 78.8 °F 75.2 °F 89% 29.80 in 3.1 mi NNE 4.6 mph - N/A   Haze
6:10 PM 78.8 °F 75.2 °F 89% 29.83 in 3.1 mi North 5.8 mph - N/A   Haze
6:40 PM 78.8 °F 75.2 °F 89% 29.83 in 3.1 mi North 2.3 mph - N/A   Haze
7:10 PM 77.0 °F 75.2 °F 94% 29.83 in 3.1 mi Calm Calm - N/A   Haze
7:40 PM 77.0 °F 75.2 °F 94% 29.86 in 3.1 mi Calm Calm - N/A   Haze
8:10 PM 77.0 °F 75.2 °F 94% 29.86 in 3.1 mi Calm Calm - N/A   Haze
8:30 PM 76 °F 74 °F 90% 29.87 in 2 mi 2.3 mph - -   Haze
8:40 PM 77.0 °F 73.4 °F 89% 29.86 in 3.1 mi Variable 2.3 mph - N/A   Haze
9:10 PM 77.0 °F 73.4 °F 89% 29.89 in 3.1 mi Variable 2.3 mph - N/A   Haze
9:40 PM 75.2 °F 73.4 °F 94% 29.89 in 3.1 mi Variable 2.3 mph - N/A   Haze
10:10 PM 75.2 °F 73.4 °F 94% 29.89 in 3.1 mi Variable 2.3 mph - N/A   Haze
10:40 PM 75.2 °F 73.4 °F 94% 29.89 in 3.1 mi Variable 2.3 mph - N/A   Haze
11:10 PM 75.2 °F 73.4 °F 94% 29.89 in 3.1 mi WNW 2.3 mph - N/A   Haze
11:30 PM 75 °F 74 °F 94% 29.87 in 2 mi Calm Calm - -   Haze
11:40 PM 75.2 °F 73.4 °F 94% 29.86 in 2.5 mi Calm Calm - N/A   Haze